Home > Weather > Funafuti > Past weeks

Flag for Tuvalu Past Weather in Funafuti, Tuvalu — Yesterday and Last 2 Weeks

Now
82 °F

Passing clouds.


Feels Like: 91 °F
Forecast: 80 / 87 °F
Wind: 8 mph from East

Location: Funafuti

Current Time: Jul 31, 2016 at 9:43:11 PM

Latest Report: Jul 31, 2016 at 9:00 PM


Visibility: N/A

Pressure: 29.86 "Hg

Humidity: 84%

Dew Point: 77 °F

Location of FunafutiLocation

Past Weather in Funafuti — Graph

°F

Funafuti Temperature Yesterday

Maximum temperature yesterday: 90 °F (at 1:00 PM)
Minimum temperature yesterday: 79 °F (at 3:00 AM)
Average temperature yesterday: 84 °F

High & Low Weather Summary for the Past Weeks

 TemperatureHumidityPressure
High90 °F (Jul 21, 11:00 AM)100% (Jul 18, 12:00 PM)29.92 "Hg (Jul 18, 12:00 PM)
Low75 °F (Jul 23, 12:00 PM)66% (Jul 27, 12:00 PM)29.71 "Hg (Jul 22, 4:00 PM)
Average83 °F83%29.81 "Hg
* Reported Jul 16 8:00 PM — Jul 31 8:00 PM, Funafuti, Weather by CustomWeather, © 2016

Note: Actual official high and low records may vary slightly from our data, if they occured in-between our weather recording intervals... More about our weather records

Advertising

Funafuti Weather History for the Previous 24 Hours

Scroll right to see more
 ConditionsComfort  
Time TempWeatherWind HumidityBarometerVisibility
8:00 PM
Sun, Jul 31
82 °FPassing clouds.10 mph84%29.83 "HgN/A
7:00 PM82 °FPassing clouds.6 mph84%29.80 "HgN/A
6:00 PM84 °FScattered clouds.9 mph79%29.80 "HgN/A
5:00 PM84 °FPassing clouds.7 mph79%29.77 "HgN/A
4:00 PM82 °FPassing clouds.7 mph94%29.74 "HgN/A
3:00 PM84 °FScattered clouds.8 mph84%29.77 "HgN/A
2:00 PM86 °FPartly sunny.7 mph79%29.77 "HgN/A
1:00 PM86 °FBroken clouds.3 mph79%29.80 "HgN/A
12:00 PM88 °FBroken clouds.3 mph75%29.83 "HgN/A
11:00 AM88 °FBroken clouds.5 mph75%29.86 "HgN/A
9:00 AM86 °FPartly sunny.3 mph75%29.86 "HgN/A
8:00 AM82 °FPartly sunny.7 mph84%29.83 "HgN/A
7:00 AM81 °FPartly sunny.6 mph89%29.83 "HgN/A
6:00 AM81 °FPassing clouds.No wind89%29.80 "HgN/A
5:00 AM77 °FScattered showers. Partly cloudy.2 mph83%29.80 "HgN/A
4:00 AM84 °FPassing clouds.No wind79%29.80 "HgN/A
3:00 AM82 °FPassing clouds.No wind84%29.80 "HgN/A
2:00 AM82 °FPassing clouds.3 mph84%29.80 "HgN/A
1:00 AM82 °FPartly cloudy.3 mph84%29.80 "HgN/A
12:00 AM82 °FPartly cloudy.No wind84%29.83 "HgN/A
11:00 PM
Sat, Jul 30
82 °FPassing clouds.No wind84%29.83 "HgN/A
10:00 PM84 °FPassing clouds.1 mph74%29.83 "HgN/A
9:00 PM84 °FPassing clouds.No wind79%29.83 "HgN/A
Weather by CustomWeather, © 2016

See weather overviewHow to use our weather pages